AB4KN Weather Reports


Display with metric or nautical units.
time (UTC)temp
F
wind
direction
speed
MPH
gust
MPH
rain 1hr
in
rain 24hr
in
rain mn
in
humidity
%
barometer
mb
20260504191955 76 266 1.0 2.0 0.00 0.00 0.00 31 1020.8
20260504191452 76 239 4.0 5.0 0.00 0.00 0.00 31 1020.8
20260504190947 76 267 2.0 2.0 0.00 0.00 0.00 33 1021.0
20260504190443 76 220 3.0 3.0 0.00 0.00 0.00 31 1021.0
20260504185940 76 187 5.0 7.0 0.00 0.00 0.00 28 1021.0
20260504185438 76 128 4.0 5.0 0.00 0.00 0.00 30 1021.0
20260504184934 76 244 2.0 3.0 0.00 0.00 0.00 31 1021.1
20260504184429 76 165 0.0 0.0 0.00 0.00 0.00 32 1021.0
20260504183925 76 216 3.0 3.0 0.00 0.00 0.00 32 1021.3
20260504183423 76 267 0.0 0.0 0.00 0.00 0.00 32 1021.2
20260504182921 76 206 0.0 0.0 0.00 0.00 0.00 31 1021.3
20260504182417 75 280 0.0 0.0 0.00 0.00 0.00 32 1021.5
20260504181914 76 204 2.0 3.0 0.00 0.00 0.00 33 1021.5
20260504181412 75 212 0.0 0.0 0.00 0.00 0.00 37 1021.5
20260504180910 74 339 3.0 3.0 0.00 0.00 0.00 36 1021.7
20260504180409 75 299 1.0 2.0 0.00 0.00 0.00 34 1021.8
20260504175907 74 271 0.0 0.0 0.00 0.00 0.00 37 1021.8
20260504175403 75 254 0.0 0.0 0.00 0.00 0.00 32 1021.9
20260504174901 75 269 1.0 2.0 0.00 0.00 0.00 35 1021.9
20260504174358 75 130 3.0 3.0 0.00 0.00 0.00 33 1021.8
20260504173855 75 241 0.0 0.0 0.00 0.00 0.00 35 1022.0
20260504173352 75 247 0.0 0.0 0.00 0.00 0.00 35 1022.2
20260504172849 75 263 0.0 0.0 0.00 0.00 0.00 36 1022.0
20260504172346 75 233 0.0 0.0 0.00 0.00 0.00 34 1022.2
20260504171841 74 264 0.0 0.0 0.00 0.00 0.00 35 1022.0
20260504171339 74 311 0.0 0.0 0.00 0.00 0.00 36 1022.3
20260504170836 75 303 0.0 0.0 0.00 0.00 0.00 36 1022.4
20260504170332 75 303 0.0 0.0 0.00 0.00 0.00 35 1022.3
20260504160251 70 305 0.0 0.0 0.00 0.00 0.00 41 1023.0
20260504150716 68 257 2.0 3.0 0.00 0.00 0.00 46 1023.7
20260504150213 67 264 0.0 2.0 0.00 0.00 0.00 45 1023.5
20260504141142 64 271 2.0 2.0 0.00 0.00 0.00 56 1024.0
20260504140639 64 265 0.0 0.0 0.00 0.00 0.00 52 1023.7
20260504140134 63 263 0.0 0.0 0.00 0.00 0.00 54 1023.9
20260504130603 54 268 0.0 0.0 0.00 0.00 0.00 73 1023.5
20260504110451 46 267 0.0 0.0 0.00 0.00 0.00 85 1022.9
20260504100413 47 267 0.0 0.0 0.00 0.00 0.00 84 1023.0
20260504081806 48 267 0.0 0.0 0.00 0.00 0.00 80 1023.0
20260504081303 48 267 0.0 0.0 0.00 0.00 0.00 80 1022.9
20260504080759 49 267 0.0 0.0 0.00 0.00 0.00 80 1023.0
20260504080255 49 267 0.0 0.0 0.00 0.00 0.00 80 1023.1
20260504070223 50 267 0.0 0.0 0.00 0.00 0.00 79 1023.6
20260504060143 51 267 0.0 0.0 0.00 0.00 0.00 78 1023.2
20260504050612 52 267 0.0 0.0 0.00 0.00 0.00 75 1023.8
20260504050109 52 268 0.0 0.0 0.00 0.00 0.00 76 1023.7
20260504045606 52 268 0.0 0.0 0.00 0.00 0.00 76 1023.7
20260504045100 52 268 0.0 0.0 0.00 0.00 0.00 76 1023.8
20260504044559 52 268 0.0 0.0 0.00 0.00 0.00 76 1023.9
20260504044055 53 268 0.0 0.0 0.00 0.00 0.00 75 1024.1
20260504043553 53 268 0.0 0.0 0.00 0.00 0.00 74 1023.9
20260504043049 53 268 0.0 0.0 0.00 0.00 0.00 74 1024.0
20260504042547 53 268 0.0 0.0 0.00 0.00 0.00 73 1023.8
20260504042043 53 268 0.0 0.0 0.00 0.00 0.00 73 1023.9
20260504041539 54 268 0.0 0.0 0.00 0.00 0.00 72 1024.0
20260504041035 54 268 0.0 0.0 0.00 0.00 0.00 71 1023.7
20260504040533 54 268 0.0 0.0 0.00 0.00 0.00 71 1023.5
20260504040030 54 268 0.0 0.0 0.00 0.00 0.00 71 1023.8
20260504035527 54 269 0.0 0.0 0.00 0.00 0.00 71 1023.9
20260504035023 54 269 0.0 0.0 0.00 0.00 0.00 70 1024.0
20260504034521 54 269 0.0 0.0 0.00 0.00 0.00 68 1023.9
20260504034017 55 269 0.0 0.0 0.00 0.00 0.00 69 1023.7
20260504033515 55 269 0.0 0.0 0.00 0.00 0.00 68 1023.9
20260504033013 55 269 0.0 0.0 0.00 0.00 0.00 67 1024.1
20260504032509 56 269 0.0 0.0 0.00 0.00 0.00 67 1023.9
20260504032006 56 269 0.0 0.0 0.00 0.00 0.00 66 1023.9
20260504031503 56 269 0.0 0.0 0.00 0.00 0.00 66 1024.1
20260504030959 56 269 0.0 0.0 0.00 0.00 0.00 64 1023.7
20260504030457 56 269 0.0 0.0 0.00 0.00 0.00 64 1023.9
20260504025952 56 269 0.0 0.0 0.00 0.00 0.00 64 1023.7
20260504025450 56 269 0.0 0.0 0.00 0.00 0.00 63 1023.8
20260504024946 57 269 0.0 0.0 0.00 0.00 0.00 65 1023.9
20260504024443 57 269 0.0 0.0 0.00 0.00 0.00 64 1023.9
20260504023940 57 269 0.0 0.0 0.00 0.00 0.00 63 1023.8
20260504023437 57 269 0.0 0.0 0.00 0.00 0.00 62 1023.8
20260504022932 57 269 0.0 0.0 0.00 0.00 0.00 61 1023.8
20260504022429 58 269 0.0 0.0 0.00 0.00 0.00 61 1023.6
20260504021926 58 269 0.0 0.0 0.00 0.00 0.00 61 1023.7
20260504021423 58 269 0.0 0.0 0.00 0.00 0.00 61 1023.3
20260504020920 59 269 0.0 0.0 0.00 0.00 0.00 59 1023.5
20260504020417 59 269 0.0 0.0 0.00 0.00 0.00 57 1023.4
20260504015914 59 269 0.0 0.0 0.00 0.00 0.00 58 1023.1
20260504015409 59 269 0.0 0.0 0.00 0.00 0.00 56 1023.1
20260504014906 59 269 0.0 0.0 0.00 0.00 0.00 55 1023.0
20260504014402 59 269 0.0 0.0 0.00 0.00 0.00 56 1023.3
20260504013859 59 269 0.0 0.0 0.00 0.00 0.00 55 1022.7
20260504013357 60 269 0.0 0.0 0.00 0.00 0.00 55 1022.7
20260504012853 60 269 0.0 0.0 0.00 0.00 0.00 55 1022.6
20260504012351 60 269 0.0 0.0 0.00 0.00 0.00 54 1022.6
20260504011849 60 269 0.0 0.0 0.00 0.00 0.00 53 1022.7
20260504011345 60 269 0.0 0.0 0.00 0.00 0.00 54 1022.7
20260504010841 60 269 0.0 0.0 0.00 0.00 0.00 52 1022.5
20260504010336 61 269 0.0 0.0 0.00 0.00 0.00 52 1022.3
20260504005833 61 268 0.0 0.0 0.00 0.00 0.00 49 1022.3
20260504005330 62 268 0.0 0.0 0.00 0.00 0.00 46 1022.2
20260504004828 62 268 0.0 0.0 0.00 0.00 0.00 45 1022.4
20260504004325 62 269 0.0 0.0 0.00 0.00 0.00 44 1022.3
20260504003821 63 269 0.0 0.0 0.00 0.00 0.00 43 1022.0
20260504003319 63 269 0.0 0.0 0.00 0.00 0.00 43 1022.1
20260504002815 63 269 0.0 0.0 0.00 0.00 0.00 42 1022.2
20260504002312 64 269 0.0 0.0 0.00 0.00 0.00 41 1022.2
20260504001810 64 268 0.0 0.0 0.00 0.00 0.00 41 1022.1
20260504001307 64 268 0.0 0.0 0.00 0.00 0.00 42 1022.2
20260504000804 65 268 0.0 0.0 0.00 0.00 0.00 41 1022.0
20260504000301 65 268 0.0 0.0 0.00 0.00 0.00 41 1022.3
20260503235758 66 268 0.0 0.0 0.00 0.00 0.00 40 1022.0
20260503235256 66 268 0.0 0.0 0.00 0.00 0.00 39 1022.0
20260503234753 67 268 0.0 0.0 0.00 0.00 0.00 38 1021.9
20260503234251 67 268 0.0 0.0 0.00 0.00 0.00 40 1022.1
20260503233748 67 245 2.0 3.0 0.00 0.00 0.00 36 1022.1
20260503233244 67 268 0.0 0.0 0.00 0.00 0.00 38 1022.0
20260503232741 68 268 0.0 0.0 0.00 0.00 0.00 39 1021.9
20260503232238 68 268 0.0 0.0 0.00 0.00 0.00 37 1021.7
20260503231736 68 267 0.0 0.0 0.00 0.00 0.00 36 1022.0
20260503231233 68 252 0.0 2.0 0.00 0.00 0.00 33 1022.1
20260503230728 69 254 2.0 2.0 0.00 0.00 0.00 35 1022.0
20260503230226 69 267 0.0 0.0 0.00 0.00 0.00 34 1022.2
20260503225724 69 246 3.0 3.0 0.00 0.00 0.00 33 1022.0
20260503225224 69 262 0.0 0.0 0.00 0.00 0.00 34 1022.2
20260503224721 69 274 0.0 0.0 0.00 0.00 0.00 35 1022.1
20260503224219 69 262 2.0 3.0 0.00 0.00 0.00 34 1021.7
20260503223716 70 233 1.0 3.0 0.00 0.00 0.00 32 1021.9
20260503223213 70 166 3.0 3.0 0.00 0.00 0.00 31 1021.9
20260503222710 70 282 3.0 3.0 0.00 0.00 0.00 32 1022.1
20260503222208 70 260 2.0 3.0 0.00 0.00 0.00 31 1022.0
20260503221706 70 220 1.0 3.0 0.00 0.00 0.00 35 1022.2
20260503221203 70 272 0.0 0.0 0.00 0.00 0.00 32 1022.2
20260503220659 70 283 0.0 0.0 0.00 0.00 0.00 33 1022.1
20260503220156 70 245 5.0 7.0 0.00 0.00 0.00 31 1022.2
20260503215653 71 246 3.0 3.0 0.00 0.00 0.00 31 1022.2
20260503215150 70 203 5.0 7.0 0.00 0.00 0.00 33 1022.0
20260503214649 70 253 1.0 2.0 0.00 0.00 0.00 32 1022.1
20260503214144 71 242 5.0 5.0 0.00 0.00 0.00 32 1022.1
20260503213644 71 261 0.0 0.0 0.00 0.00 0.00 33 1022.2
20260503213140 70 199 0.0 2.0 0.00 0.00 0.00 36 1022.3
20260503212637 70 286 0.0 0.0 0.00 0.00 0.00 35 1022.3
20260503212135 70 300 0.0 0.0 0.00 0.00 0.00 34 1022.4
20260503211633 71 247 2.0 2.0 0.00 0.00 0.00 32 1022.6
20260503211127 71 240 0.0 2.0 0.00 0.00 0.00 36 1022.5
20260503210624 71 297 0.0 0.0 0.00 0.00 0.00 32 1022.4
20260503210121 71 188 0.0 2.0 0.00 0.00 0.00 32 1022.4
20260503205616 71 59 0.0 0.0 0.00 0.00 0.00 32 1022.4
20260503205113 71 271 2.0 5.0 0.00 0.00 0.00 32 1022.6
20260503204610 70 204 2.0 3.0 0.00 0.00 0.00 32 1022.7
20260503204107 71 306 0.0 0.0 0.00 0.00 0.00 34 1022.9
20260503203604 71 314 1.0 2.0 0.00 0.00 0.00 34 1022.7
20260503203101 70 239 0.0 0.0 0.00 0.00 0.00 35 1022.9
20260503202559 70 244 3.0 3.0 0.00 0.00 0.00 34 1022.7
20260503202057 71 201 0.0 0.0 0.00 0.00 0.00 32 1023.0
20260503201555 71 259 0.0 0.0 0.00 0.00 0.00 32 1023.0
20260503201052 70 229 0.0 0.0 0.00 0.00 0.00 33 1023.2
20260503200548 71 198 5.0 7.0 0.00 0.00 0.00 34 1023.2
20260503200044 70 261 0.0 0.0 0.00 0.00 0.00 36 1023.4
20260503195542 70 189 3.0 3.0 0.00 0.00 0.00 33 1023.2
20260503195038 70 243 4.0 5.0 0.00 0.00 0.00 33 1023.4
20260503194535 70 184 3.0 3.0 0.00 0.00 0.00 31 1023.3
20260503194030 69 294 0.0 0.0 0.00 0.00 0.00 34 1023.5
20260503193527 69 318 0.0 0.0 0.00 0.00 0.00 34 1023.7
20260503193022 70 321 2.0 2.0 0.00 0.00 0.00 35 1023.9
20260503192518 69 303 1.0 2.0 0.00 0.00 0.00 36 1024.0